When you browse on this site, cookies collect data to enhance your experience and personalize the content and advertising you see.
Visit our Privacy Policy to learn more. By continuing to use the site, you agree to this use of cookies and data.
  • In Sweden
  • List of Countries
  • For 7 days
  • Water Temperature
  • Satellite Maps
  • Weather Map
  • Weather Widgets
  • user-avatar
    Login

    Hourly Weather Hobart

    Today, 19 July, Friday

    Time Temperature Precipitation Wind Pressure Humidity
    00:00 +5°C° 0.3 mm 4 mps 739 mmHg 88%
    01:00 +4°C° 0.3 mm 4 mps 740 mmHg 88%
    02:00 +4°C° 0 mm 4 mps 740 mmHg 88%
    03:00 +3°C° 0 mm 5 mps 741 mmHg 88%
    04:00 +3°C° 0 mm 5 mps 742 mmHg 88%
    05:00 +3°C° 0 mm 5 mps 742 mmHg 88%
    06:00 +3°C° 0 mm 5 mps 742 mmHg 87%
    07:00 +5°C° 0 mm 5 mps 743 mmHg 87%
    08:00 +6°C° 0 mm 5 mps 743 mmHg 85%
    09:00 +7°C° 0 mm 5 mps 744 mmHg 83%
    10:00 +8°C° 0 mm 5 mps 745 mmHg 80%
    11:00 +8°C° 0 mm 5 mps 745 mmHg 79%
    12:00 +9°C° 0 mm 5 mps 745 mmHg 77%
    13:00 +9°C° 0 mm 5 mps 745 mmHg 75%
    14:00 +10°C° 0 mm 4 mps 745 mmHg 77%
    15:00 +10°C° 0 mm 3 mps 746 mmHg 78%
    16:00 +10°C° 0 mm 2 mps 746 mmHg 80%
    17:00 +9°C° 0 mm 2 mps 747 mmHg 83%
    18:00 +8°C° 0 mm 2 mps 747 mmHg 86%
    19:00 +7°C° 0 mm 2 mps 747 mmHg 89%
    20:00 +7°C° 0 mm 2 mps 748 mmHg 90%
    21:00 +7°C° 0 mm 2 mps 748 mmHg 90%
    22:00 +7°C° 0 mm 2 mps 749 mmHg 90%
    23:00 +6°C° 0 mm 2 mps 749 mmHg 91%

    Tomorrow, 20 July, Saturday

    Time Temperature Precipitation Wind Pressure Humidity
    00:00 +5°C° 0 mm 2 mps 748 mmHg 91%
    01:00 +4°C° 0 mm 3 mps 748 mmHg 92%
    02:00 +3°C° 0 mm 3 mps 748 mmHg 93%
    03:00 +3°C° 0 mm 3 mps 748 mmHg 94%
    04:00 +2°C° 0 mm 3 mps 747 mmHg 94%
    05:00 +2°C° 0 mm 3 mps 747 mmHg 94%
    06:00 +3°C° 0 mm 2 mps 747 mmHg 93%
    07:00 +3°C° 0 mm 2 mps 747 mmHg 93%
    08:00 +3°C° 0 mm 3 mps 746 mmHg 86%
    09:00 +5°C° 0 mm 3 mps 746 mmHg 80%
    10:00 +8°C° 0 mm 3 mps 746 mmHg 73%
    11:00 +9°C° 0 mm 3 mps 745 mmHg 69%
    12:00 +11°C° 0 mm 3 mps 745 mmHg 65%
    13:00 +13°C° 0 mm 3 mps 744 mmHg 61%
    14:00 +13°C° 0 mm 3 mps 744 mmHg 63%
    15:00 +12°C° 0 mm 3 mps 744 mmHg 65%
    16:00 +11°C° 0 mm 3 mps 743 mmHg 67%
    17:00 +10°C° 0 mm 3 mps 743 mmHg 72%
    18:00 +8°C° 0 mm 4 mps 743 mmHg 77%
    19:00 +7°C° 0 mm 4 mps 743 mmHg 82%
    20:00 +7°C° 0 mm 4 mps 743 mmHg 83%
    21:00 +6°C° 0 mm 4 mps 743 mmHg 85%
    22:00 +6°C° 0 mm 4 mps 742 mmHg 87%
    23:00 +6°C° 0 mm 4 mps 742 mmHg 86%

    Day after tomorrow, 21 July, Sunday

    Time Temperature Precipitation Wind Pressure Humidity
    00:00 +6°C° 0 mm 4 mps 741 mmHg 85%
    01:00 +6°C° 0 mm 4 mps 740 mmHg 84%
    02:00 +6°C° 0 mm 5 mps 740 mmHg 84%
    03:00 +7°C° 0 mm 5 mps 739 mmHg 83%
    04:00 +7°C° 0 mm 5 mps 738 mmHg 83%
    05:00 +7°C° 0 mm 5 mps 737 mmHg 82%
    06:00 +7°C° 0 mm 5 mps 736 mmHg 82%
    07:00 +7°C° 0 mm 5 mps 735 mmHg 82%
    08:00 +8°C° 0 mm 6 mps 735 mmHg 76%
    09:00 +9°C° 0 mm 6 mps 735 mmHg 70%
    10:00 +10°C° 0 mm 6 mps 735 mmHg 65%
    11:00 +10°C° 0 mm 7 mps 734 mmHg 63%
    12:00 +10°C° 0 mm 7 mps 734 mmHg 62%
    13:00 +10°C° 0 mm 8 mps 734 mmHg 61%
    14:00 +9°C° 0 mm 7 mps 734 mmHg 64%
    15:00 +8°C° 0 mm 7 mps 735 mmHg 66%
    16:00 +6°C° 0 mm 7 mps 735 mmHg 69%
    17:00 +7°C° 0 mm 6 mps 736 mmHg 70%
    18:00 +7°C° 0 mm 5 mps 737 mmHg 71%
    19:00 +6°C° 0 mm 4 mps 738 mmHg 72%
    20:00 +6°C° 0 mm 4 mps 739 mmHg 73%
    21:00 +6°C° 0 mm 4 mps 739 mmHg 73%
    22:00 +7°C° 0 mm 3 mps 739 mmHg 74%
    23:00 +7°C° 0 mm 3 mps 739 mmHg 75%

    22 July, Monday

    Time Temperature Precipitation Wind Pressure Humidity
    00:00 +5°C° 0 mm 3 mps 739 mmHg 77%
    01:00 +5°C° 0 mm 3 mps 740 mmHg 78%
    02:00 +7°C° 0 mm 3 mps 739 mmHg 78%
    03:00 +7°C° 0 mm 3 mps 739 mmHg 77%
    04:00 +7°C° 0 mm 3 mps 739 mmHg 77%
    05:00 +8°C° 0 mm 3 mps 739 mmHg 77%
    06:00 +8°C° 0 mm 3 mps 739 mmHg 77%
    07:00 +8°C° 0 mm 4 mps 739 mmHg 77%
    08:00 +10°C° 0 mm 4 mps 740 mmHg 73%
    09:00 +10°C° 0 mm 5 mps 740 mmHg 68%
    10:00 +13°C° 0 mm 5 mps 740 mmHg 64%
    11:00 +14°C° 0 mm 5 mps 740 mmHg 61%
    12:00 +14°C° 0 mm 6 mps 739 mmHg 57%
    13:00 +15°C° 0 mm 6 mps 739 mmHg 54%
    14:00 +14°C° 0 mm 6 mps 739 mmHg 55%
    15:00 +14°C° 0 mm 6 mps 739 mmHg 56%
    16:00 +13°C° 0 mm 5 mps 739 mmHg 57%
    17:00 +12°C° 0 mm 5 mps 739 mmHg 63%
    18:00 +9°C° 0 mm 5 mps 739 mmHg 68%
    19:00 +8°C° 0 mm 5 mps 739 mmHg 73%
    20:00 +8°C° 0 mm 5 mps 739 mmHg 73%
    21:00 +8°C° 0 mm 5 mps 739 mmHg 72%
    22:00 +8°C° 0 mm 5 mps 738 mmHg 72%
    23:00 +8°C° 0 mm 5 mps 738 mmHg 73%

    23 July, Tuesday

    Time Temperature Precipitation Wind Pressure Humidity
    00:00 +8°C° 0 mm 5 mps 738 mmHg 73%
    01:00 +8°C° 0 mm 5 mps 737 mmHg 74%
    02:00 +8°C° 0 mm 4 mps 737 mmHg 76%
    03:00 +7°C° 0 mm 4 mps 737 mmHg 79%
    04:00 +8°C° 0 mm 3 mps 737 mmHg 81%
    05:00 +8°C° 0 mm 3 mps 737 mmHg 82%
    06:00 +8°C° 0 mm 3 mps 738 mmHg 84%
    07:00 +7°C° 0 mm 2 mps 738 mmHg 85%
    08:00 +8°C° 0 mm 2 mps 738 mmHg 80%
    09:00 +9°C° 0 mm 3 mps 739 mmHg 76%
    10:00 +9°C° 0 mm 3 mps 739 mmHg 71%
    11:00 +9°C° 0.1 mm 3 mps 739 mmHg 69%
    12:00 +9°C° 0.1 mm 3 mps 738 mmHg 67%
    13:00 +10°C° 0.1 mm 3 mps 738 mmHg 65%
    14:00 +9°C° 0.1 mm 3 mps 738 mmHg 68%
    15:00 +8°C° 0.1 mm 3 mps 738 mmHg 71%
    16:00 +8°C° 0.1 mm 3 mps 738 mmHg 74%
    17:00 +7°C° 0.1 mm 3 mps 738 mmHg 79%
    18:00 +5°C° 0.1 mm 3 mps 739 mmHg 85%
    19:00 +3°C° 0.1 mm 3 mps 739 mmHg 90%
    20:00 +4°C° 0 mm 2 mps 739 mmHg 90%
    21:00 +4°C° 0 mm 2 mps 739 mmHg 90%
    22:00 +3°C° 0 mm 2 mps 740 mmHg 90%
    23:00 +3°C° 0 mm 2 mps 740 mmHg 91%

    24 July, Wednesday

    Time Temperature Precipitation Wind Pressure Humidity
    00:00 +3°C° 0 mm 2 mps 740 mmHg 92%
    01:00 +3°C° 0 mm 2 mps 740 mmHg 93%
    02:00 +2°C° 0 mm 2 mps 741 mmHg 93%
    03:00 +2°C° 0 mm 2 mps 741 mmHg 93%
    04:00 +2°C° 0 mm 2 mps 742 mmHg 94%
    05:00 +2°C° 0 mm 2 mps 743 mmHg 93%
    06:00 +2°C° 0 mm 2 mps 743 mmHg 93%
    07:00 +1°C° 0 mm 2 mps 744 mmHg 93%
    08:00 +3°C° 0 mm 2 mps 745 mmHg 87%
    09:00 +4°C° 0 mm 2 mps 745 mmHg 81%
    10:00 +5°C° 0 mm 3 mps 746 mmHg 75%
    11:00 +7°C° 0 mm 3 mps 745 mmHg 69%
    12:00 +8°C° 0 mm 3 mps 745 mmHg 62%
    13:00 +10°C° 0 mm 4 mps 745 mmHg 56%
    14:00 +9°C° 0 mm 3 mps 745 mmHg 60%
    15:00 +9°C° 0 mm 3 mps 745 mmHg 64%
    16:00 +9°C° 0 mm 2 mps 745 mmHg 67%
    17:00 +8°C° 0 mm 3 mps 745 mmHg 74%
    18:00 +7°C° 0 mm 3 mps 745 mmHg 80%
    19:00 +5°C° 0 mm 3 mps 745 mmHg 86%
    20:00 +7°C° 0 mm 3 mps 745 mmHg 85%
    21:00 +7°C° 0 mm 3 mps 745 mmHg 85%
    22:00 +8°C° 0 mm 3 mps 745 mmHg 84%
    23:00 +8°C° 0.1 mm 2 mps 745 mmHg 84%
    Show more